[[{"header":{"parameterUnit":"m.s-1","parameterCategory":2,"la1":30.2991,"la2":30.254,"lo1":-89.0895,"lo2":-89.0444,"dy":0.0017,"dx":0.0017,"nx":28,"ny":28,"refTime":"2025-03-11T03:00:00:Z","depth":"0","parameterNumber":2,"parameterNumberName":"U-component_of_CURRENTS"},"data":[0,0,0,0,0,0,0,0,0,0,0,0,0,0,0,0,0,0,0,0,0,0,0,0,0,0,0,0,0,0,0,0,0,0,0,0,0,0,0,0,0,0,0,0,0,0,0,0,0,0,0,0,0,0,0,0,0,0,0.3371,0.3371,0,0.3306,0.3305,0.3304,0.3222,0.3221,0.322,0.3219,0.3237,0.3238,0.324,0,0,0,0,0,0,0,0,0,0,0,0,0,0.3406,0.3405,0.3371,0.3371,0.3371,0.3307,0.3305,0.3304,0.3222,0.3221,0.322,0.3219,0.3237,0.3238,0.324,0,0,0,0,0,0,0,0,0,0,0,0,0,0.3366,0.3405,0.3371,0.3326,0.3322,0.3307,0.3305,0.3303,0.3222,0.3221,0.322,0.3219,0.3236,0.3238,0.324,0.3276,0,0,0.3246,0.3246,0,0,0,0,0,0,0,0,0.3368,0.3364,0.3333,0.3329,0.3325,0.3276,0.3324,0.33,0.3223,0.3254,0.3219,0.3218,0.3262,0.3262,0.3243,0.3277,0.3277,0.3246,0.3247,0.3248,0.3248,0,0,0,0,0,0,0,0.3371,0.3366,0.334,0.3333,0.3328,0.3303,0.3296,0.3318,0.3263,0.3251,0.3247,0.3249,0.326,0.3242,0.3244,0.3278,0.3246,0.3247,0.3248,0.3249,0.3357,0.3358,0,0,0,0,0,0,0.3392,0.3369,0.3342,0.3339,0.335,0.3304,0.3295,0.3288,0.3261,0.3257,0.325,0.3245,0.3239,0.3241,0.3244,0.3315,0.3248,0.3249,0.325,0.3355,0.3357,0.3359,0,0,0,0,0,0,0.3393,0.339,0.3345,0.3357,0.335,0.3306,0.3298,0.3288,0.3274,0.326,0.3255,0.3248,0.3238,0.3242,0.3262,0.3314,0.325,0.3252,0.3353,0.3356,0.3358,0.3439,0,0,0,0,0,0,0.3394,0.3391,0.3396,0.3358,0.3351,0.3357,0.3299,0.3287,0.328,0.3273,0.3258,0.3257,0.3238,0.3259,0.3264,0.3315,0.3253,0.3351,0.3354,0.3357,0.3434,0.3444,0.3452,0,0,0,0,0,0.3395,0.3407,0.3396,0.3394,0.3358,0.336,0.3354,0.3313,0.3282,0.3293,0.3266,0.3258,0.3284,0.3262,0.3267,0.332,0.3349,0.3353,0.3357,0.343,0.3442,0.3452,0,0,0,0,0,0,0.3422,0.3399,0.3387,0.339,0.3389,0.3348,0.3354,0.3327,0.3311,0.3304,0.3274,0.3273,0.3312,0.3306,0.3282,0.336,0.3319,0.3324,0.3373,0.3384,0.3393,0.3432,0.3255,0,0,0,0,0,0.3436,0.3437,0.342,0.3428,0.343,0.3396,0.3391,0.337,0.335,0.334,0.3326,0.3321,0.3333,0.3347,0.3353,0.3401,0.3441,0.344,0.3449,0.3457,0.3492,0.3591,0.3613,0.3372,0.3372,0.3372,0,0,0.345,0.3439,0.344,0.3435,0.3424,0.3441,0.3388,0.3395,0.3411,0.3352,0.3368,0.3354,0.335,0.3389,0.3409,0.3393,0.3546,0.3462,0.3469,0.3501,0.3598,0.3621,0.3643,0.3375,0.3374,0.3374,0,0,0.3485,0.3472,0.3489,0.349,0.3492,0.3482,0.3493,0.3469,0.3462,0.3482,0.3441,0.346,0.3471,0.3481,0.3487,0.356,0.3585,0.3561,0.365,0.3744,0.3766,0.3785,0.3864,0.389,0.3572,0.3573,0.3573,0,0.3506,0.3514,0.3499,0.3516,0.3525,0.3508,0.3535,0.3537,0.3523,0.3542,0.3505,0.3541,0.3524,0.3594,0.3602,0.3587,0.3638,0.3604,0.376,0.378,0.3798,0.3874,0.3902,0.3577,0.3576,0.3576,0.3576,0,0.3546,0.3558,0.3572,0.3588,0.3605,0.3626,0.3634,0.3659,0.3651,0.3652,0.3712,0.369,0.3724,0.3715,0.3676,0.3798,0.379,0.3755,0.3736,0.3828,0.3901,0.3929,0.3583,0.3582,0.358,0.3579,0,0,0.3573,0.3596,0.3599,0.362,0.364,0.366,0.3716,0.3765,0.382,0.3821,0.391,0.39,0.3901,0.3909,0.3881,0.3946,0.4094,0.3911,0.3913,0.3997,0.4312,0.4238,0.4259,0.409,0.4095,0.4099,0.431,0,0.3609,0.3658,0.3657,0.3714,0.3747,0.3758,0.382,0.3866,0.3902,0.399,0.4007,0.4067,0.3975,0.4005,0.4063,0.4087,0.4171,0.4041,0.4204,0.4209,0.4139,0.4291,0.4075,0.4239,0.4336,0.4341,0.4344,0,0.3636,0.3674,0.3731,0.3792,0.3809,0.3841,0.3945,0.3998,0.4115,0.4154,0.423,0.4246,0.4343,0.4256,0.4389,0.4313,0.4336,0.4346,0.4354,0.4283,0.4187,0.4162,0.4284,0.4225,0.4386,0.4382,0.4379,0,0.3664,0.3716,0.3766,0.378,0.3858,0.3894,0.3943,0.4045,0.4113,0.4273,0.4354,0.4459,0.4525,0.4591,0.4578,0.4517,0.4731,0.465,0.4615,0.4609,0.4458,0.443,0.455,0.4789,0.4788,0.4788,0.4787,0,0.3687,0.3724,0.3779,0.3809,0.3882,0.3931,0.402,0.4102,0.4245,0.4341,0.4439,0.4538,0.4612,0.471,0.4701,0.4751,0.4839,0.4688,0.4683,0.4476,0.4448,0.4412,0.4373,0.4796,0.4794,0.4792,0.4791,0,0.3692,0.3724,0.3776,0.3861,0.389,0.3936,0.403,0.4102,0.4255,0.4402,0.4466,0.4644,0.4768,0.483,0.4946,0.4894,0.4833,0.4942,0.4685,0.4646,0.4523,0.4495,0.4454,0.433,0.4972,0.4972,0.4971,0,0.3685,0.3731,0.3803,0.381,0.3832,0.3899,0.3951,0.4092,0.4168,0.4427,0.4505,0.4703,0.4764,0.4941,0.4922,0.4971,0.4839,0.4808,0.4645,0.4549,0.4516,0.4328,0.4212,0.4482,0.4477,0.4474,0.4471,0,0.3676,0.3702,0.3726,0.3783,0.3804,0.3839,0.3922,0.3984,0.416,0.4274,0.4429,0.4514,0.4712,0.4664,0.4762,0.4753,0.4593,0.4738,0.4717,0.4234,0.3962,0.3826,0.431,0.4441,0.4444,0.4446,0.4448,0.4449,0.3621,0.3629,0.3665,0.368,0.3713,0.3726,0.3685,0.3781,0.3852,0.3934,0.4178,0.4203,0.4382,0.4473,0.4462,0.4405,0.4385,0.4289,0.4297,0.4142,0.3915,0.4335,0.4398,0.4401,0.4403,0.4405,0.4407,0,0.348,0.3511,0.3563,0.3535,0.349,0.3573,0.3611,0.3517,0.3469,0.3638,0.368,0.3812,0.3839,0.4003,0.409,0.3988,0.3767,0.3931,0.3631,0.3564,0.4027,0.3897,0.3758,0.3758,0.3758,0.3758,0.3758,0.3758,0.3409,0.3363,0.3399,0.3273,0.3264,0.3136,0.3088,0.3004,0.3048,0.3017,0.307,0.3205,0.3645,0.3883,0.3866,0.3759,0.3516,0.3343,0.34,0.3756,0.3788,0.3819,0.3691,0.3511,0.351,0.2729,0.2724,0.272]},{"header":{"parameterUnit":"m.s-1","parameterCategory":2,"la1":30.2991,"la2":30.254,"lo1":-89.0895,"lo2":-89.0444,"dy":0.0017,"dx":0.0017,"nx":28,"ny":28,"refTime":"2025-03-11T03:00:00:Z","depth":"0","parameterNumber":3,"parameterNumberName":"V-component_of_CURRENTS"},"data":[0,0,0,0,0,0,0,0,0,0,0,0,0,0,0,0,0,0,0,0,0,0,0,0,0,0,0,0,0,0,0,0,0,0,0,0,0,0,0,0,0,0,0,0,0,0,0,0,0,0,0,0,0,0,0,0,0,0,0.0142,0.0141,0,0.0071,0.007,0.0069,0.0029,0.0029,0.0029,0.0028,-0.0058,-0.006,-0.0062,0,0,0,0,0,0,0,0,0,0,0,0,0,0.0184,0.0184,0.0142,0.0141,0.0141,0.0071,0.007,0.0069,0.0029,0.0029,0.0029,0.0028,-0.0057,-0.006,-0.0062,0,0,0,0,0,0,0,0,0,0,0,0,0,0.0144,0.0184,0.0142,0.0113,0.0109,0.0071,0.007,0.0069,0.0029,0.0029,0.0029,0.0028,-0.0056,-0.0059,-0.0063,-0.0081,0,0,-0.0073,-0.0074,0,0,0,0,0,0,0,0,0.0147,0.0143,0.0118,0.0115,0.0111,0.0059,0.0053,0.0018,0.0029,0.0059,0.0028,0.0028,-0.002,-0.0026,-0.004,-0.0085,-0.0088,-0.0073,-0.0075,-0.0076,-0.0077,0,0,0,0,0,0,0,0.015,0.0145,0.0113,0.0117,0.0113,0.0082,0.0077,0.0046,0.002,0.0056,0.0053,0.0046,-0.0022,-0.0036,-0.0042,-0.009,-0.0073,-0.0076,-0.0078,-0.0079,-0.0127,-0.0126,0,0,0,0,0,0,0.0163,0.0148,0.0116,0.0111,0.0129,0.0082,0.0076,0.0075,0.0021,0.0013,0.0046,0.0045,-0.0031,-0.0038,-0.0045,-0.0041,-0.0076,-0.008,-0.0081,-0.0128,-0.0127,-0.0126,0,0,0,0,0,0,0.0164,0.0161,0.0118,0.0128,0.0121,0.0082,0.0081,0.0074,0.0063,0.0014,0.0005,0.0043,-0.0031,-0.004,-0.0058,-0.0046,-0.0081,-0.0084,-0.0128,-0.0127,-0.0126,-0.0051,0,0,0,0,0,0,0.0166,0.0162,0.0167,0.0129,0.0121,0.0107,0.0081,0.0073,0.0059,0.0056,0.0008,-0.0,-0.0032,-0.0052,-0.0061,-0.0051,-0.0087,-0.0129,-0.0128,-0.0127,-0.0054,-0.0047,-0.0041,0,0,0,0,0,0.0168,0.0183,0.0168,0.0164,0.0129,0.0107,0.01,0.0071,0.0059,0.006,0.0033,0.0002,-0.005,-0.0054,-0.0065,-0.0055,-0.013,-0.0128,-0.0127,-0.0057,-0.0048,-0.0041,0,0,0,0,0,0,0.0203,0.0179,0.0162,0.0168,0.0142,0.0101,0.01,0.0077,0.0055,0.0055,0.0009,-0.0001,-0.0014,-0.0043,-0.0046,-0.0064,-0.0095,-0.0095,-0.0038,-0.0031,-0.0024,0.0005,-0.0089,0,0,0,0,0,0.0213,0.0219,0.0184,0.0188,0.0179,0.0139,0.0127,0.0108,0.0081,0.0071,0.0037,0.0006,-0.0017,-0.0028,-0.0058,-0.0066,-0.0085,-0.0067,-0.006,-0.0054,-0.0037,-0.004,-0.0032,-0.0121,-0.0121,-0.0121,0,0,0.0227,0.0215,0.0217,0.0196,0.0173,0.0173,0.0132,0.0122,0.0126,0.0066,0.0063,0.0024,-0.0015,-0.0024,-0.0032,-0.0044,-0.0043,-0.0052,-0.0047,-0.0033,-0.0038,-0.0029,-0.0021,-0.0119,-0.012,-0.012,0,0,0.026,0.0248,0.0262,0.0248,0.0223,0.0202,0.0203,0.0165,0.0155,0.0141,0.0105,0.0084,0.0037,0.0022,0.0007,0.0033,-0.0012,0.0013,0.0073,0.007,0.0077,0.0084,0.0057,0.006,0.0021,0.0021,0.0021,0,0.0276,0.0288,0.0261,0.027,0.0267,0.0221,0.0235,0.022,0.0183,0.0185,0.0153,0.011,0.0065,0.0077,0.0076,0.0049,0.003,0.0046,0.008,0.0086,0.0091,0.0062,0.0065,0.0025,0.0025,0.0024,0.0024,0,0.0315,0.0324,0.0333,0.0332,0.0327,0.033,0.0308,0.0306,0.0282,0.0262,0.0258,0.0205,0.0186,0.0161,0.0119,0.0139,0.0106,0.0085,0.0064,0.0105,0.0071,0.0073,0.0031,0.0029,0.0028,0.0027,0,0,0.0345,0.0358,0.036,0.0371,0.0361,0.0361,0.0383,0.0384,0.0411,0.0367,0.0403,0.034,0.031,0.0292,0.0244,0.0231,0.0229,0.0175,0.0172,0.0155,0.0205,0.0152,0.0148,0.0214,0.0215,0.0216,0.0161,0,0.0378,0.0414,0.0412,0.0447,0.0461,0.0446,0.0472,0.0473,0.0466,0.049,0.045,0.0455,0.0363,0.0361,0.0334,0.0266,0.0239,0.0244,0.0163,0.016,0.0114,0.0152,0.0151,0.0101,0.0162,0.0163,0.0163,0,0.0409,0.0431,0.0476,0.0509,0.0515,0.0533,0.0575,0.0597,0.0622,0.062,0.0623,0.0593,0.0577,0.0496,0.0407,0.0413,0.0313,0.0249,0.0245,0.0176,0.0112,0.0071,0.0101,-0.0102,0.0165,0.0165,0.0165,0,0.0434,0.0472,0.0514,0.0523,0.0556,0.0581,0.0602,0.0633,0.0687,0.072,0.0765,0.0724,0.0732,0.062,0.0467,0.0442,0.0366,0.0318,0.0175,0.0168,0.0144,0.0134,-0.0023,0.0253,0.0253,0.0253,0.0253,0,0.0464,0.0494,0.053,0.0549,0.0612,0.0621,0.0699,0.0719,0.0796,0.0898,0.0841,0.0916,0.0764,0.0702,0.0532,0.0366,0.0413,0.0197,0.0162,0.0166,0.0159,-0.004,-0.0144,0.0251,0.0252,0.0252,0.0252,0,0.0493,0.0505,0.0559,0.0606,0.0625,0.0675,0.0771,0.0848,0.0894,0.1039,0.1069,0.1073,0.0992,0.0812,0.0641,0.0464,0.018,0.0218,0.0218,0.0184,-0.0148,-0.0247,-0.0434,-0.052,0.0063,0.0061,0.006,0,0.0517,0.0554,0.0615,0.0657,0.0681,0.0756,0.083,0.0893,0.1009,0.115,0.1253,0.1217,0.1224,0.0934,0.0622,0.0328,0.0137,0.0114,0.0061,-0.0157,-0.0293,-0.0375,-0.0439,0.0048,0.0047,0.0046,0.0045,0,0.0586,0.0607,0.0645,0.0746,0.0816,0.0921,0.1039,0.1147,0.1275,0.1391,0.1551,0.1564,0.1291,0.1003,0.0574,0.0364,-0.0031,0.0082,-0.0127,-0.03,-0.0412,-0.0513,0.0051,0.0036,0.0037,0.0038,0.0038,0.0038,0.0641,0.0683,0.0751,0.0849,0.0948,0.1116,0.123,0.1376,0.1568,0.1767,0.1763,0.1803,0.1365,0.0789,0.0461,-0.0127,-0.0125,-0.0317,-0.0415,-0.0475,-0.0572,-0.0045,-0.0111,-0.0111,-0.0111,-0.0111,-0.0111,0,0.0712,0.0764,0.0866,0.0991,0.1149,0.1184,0.1408,0.154,0.1774,0.1902,0.1999,0.1834,0.1266,0.0715,-0.0076,-0.0534,-0.0679,-0.0778,-0.089,-0.0927,-0.0439,-0.0455,-0.0618,-0.0618,-0.0617,-0.0617,-0.0617,-0.0617,0.0746,0.0844,0.0902,0.116,0.1277,0.1507,0.1648,0.1809,0.1944,0.2103,0.214,0.2134,0.1773,0.0265,-0.0727,-0.096,-0.1269,-0.1369,-0.1508,-0.1185,-0.1149,-0.1115,-0.1156,-0.1463,-0.1464,-0.1942,-0.1947,-0.195]}],[{"header":{"parameterUnit":"m.s-1","parameterCategory":2,"la1":30.2991,"la2":30.254,"lo1":-89.0895,"lo2":-89.0444,"dy":0.0017,"dx":0.0017,"nx":28,"ny":28,"refTime":"2025-03-11T03:00:00:Z","depth":"2","parameterNumber":2,"parameterNumberName":"U-component_of_CURRENTS"},"data":[0,0,0,0,0,0,0,0,0,0,0,0,0,0,0,0,0,0,0,0,0,0,0,0,0,0,0,0,0,0,0,0,0,0,0,0,0,0,0,0,0,0,0,0,0,0,0,0,0,0,0,0,0,0,0,0,0,0,0.278,0.2781,0,0.2791,0.279,0.279,0.2766,0.2766,0.2766,0.2766,0.2822,0.2824,0.2825,0,0,0,0,0,0,0,0,0,0,0,0,0,0.2743,0.2743,0.278,0.2781,0.2782,0.2791,0.279,0.279,0.2766,0.2766,0.2766,0.2766,0.2822,0.2823,0.2825,0,0,0,0,0,0,0,0,0,0,0,0,0,0.275,0.2743,0.278,0.2776,0.2776,0.2791,0.279,0.279,0.2766,0.2766,0.2766,0.2766,0.2821,0.2823,0.2826,0.2845,0,0,0.2833,0.2834,0,0,0,0,0,0,0,0,0.275,0.2751,0.2776,0.2776,0.2777,0.2783,0.2798,0.2813,0.2766,0.2763,0.2766,0.2766,0.2818,0.282,0.2813,0.2848,0.285,0.2833,0.2835,0.2836,0.2837,0,0,0,0,0,0,0,0.275,0.2751,0.2778,0.2777,0.2777,0.2775,0.2775,0.28,0.2787,0.2763,0.2763,0.2775,0.2817,0.281,0.2814,0.2851,0.2833,0.2835,0.2837,0.2838,0.2993,0.2996,0,0,0,0,0,0,0.2762,0.275,0.2777,0.2779,0.277,0.2777,0.2776,0.2776,0.2786,0.2789,0.2775,0.2774,0.2806,0.2811,0.2816,0.2904,0.2836,0.2838,0.284,0.2991,0.2994,0.2997,0,0,0,0,0,0,0.2761,0.2764,0.2777,0.2771,0.2773,0.2778,0.2777,0.2776,0.2787,0.2796,0.2798,0.279,0.2806,0.2813,0.2859,0.2904,0.2839,0.2841,0.2987,0.2992,0.2995,0.304,0,0,0,0,0,0,0.2759,0.2763,0.2788,0.2771,0.2774,0.2815,0.2778,0.2777,0.2797,0.2796,0.281,0.2813,0.2807,0.2856,0.2861,0.2906,0.2843,0.2984,0.2989,0.2994,0.3035,0.3045,0.3053,0,0,0,0,0,0.2758,0.2795,0.2788,0.2793,0.28,0.2817,0.2819,0.2817,0.2798,0.2821,0.2823,0.2813,0.2892,0.2859,0.2866,0.2912,0.2982,0.2988,0.2994,0.3031,0.3043,0.3053,0,0,0,0,0,0,0.2801,0.2797,0.2788,0.2825,0.2834,0.2817,0.2841,0.2831,0.2846,0.2849,0.2838,0.2843,0.2897,0.2908,0.2872,0.2976,0.294,0.2948,0.2966,0.2978,0.2987,0.3023,0.2845,0,0,0,0,0,0.282,0.283,0.2835,0.2859,0.2868,0.2854,0.2866,0.2866,0.287,0.2875,0.288,0.29,0.2925,0.2953,0.2972,0.3032,0.3068,0.3072,0.3082,0.3089,0.3126,0.3215,0.3236,0.3016,0.3016,0.3016,0,0,0.2834,0.2839,0.2843,0.2868,0.2863,0.2889,0.2859,0.2887,0.291,0.2883,0.2919,0.2926,0.2946,0.3001,0.303,0.3019,0.3168,0.3097,0.3102,0.3136,0.3224,0.3245,0.3264,0.302,0.302,0.3019,0,0,0.2867,0.2878,0.2899,0.2912,0.2936,0.2935,0.295,0.2953,0.2961,0.3005,0.2984,0.3023,0.3067,0.3084,0.3099,0.318,0.3203,0.3196,0.3283,0.3368,0.3387,0.3404,0.3461,0.3483,0.3213,0.3213,0.3213,0,0.2887,0.2909,0.2912,0.2942,0.2957,0.2958,0.2988,0.3003,0.3023,0.305,0.3036,0.3112,0.3109,0.3184,0.3208,0.32,0.3254,0.3228,0.338,0.3397,0.3414,0.3469,0.3493,0.3216,0.3215,0.3215,0.3215,0,0.2932,0.2955,0.2969,0.2994,0.3025,0.3048,0.3073,0.3112,0.3124,0.3143,0.3223,0.3229,0.3287,0.3287,0.3272,0.3392,0.3392,0.3365,0.3346,0.3439,0.3491,0.3514,0.322,0.3219,0.3218,0.3217,0,0,0.2923,0.2987,0.2985,0.3007,0.305,0.3075,0.3135,0.3192,0.3259,0.329,0.3376,0.3406,0.343,0.3452,0.3444,0.3518,0.3648,0.351,0.3513,0.3558,0.3847,0.3723,0.3737,0.3661,0.3666,0.367,0.3829,0,0.294,0.3011,0.3034,0.3084,0.3117,0.3148,0.3219,0.3283,0.3338,0.3431,0.3462,0.3544,0.3487,0.354,0.3601,0.3653,0.3719,0.3608,0.3761,0.3765,0.3637,0.3763,0.346,0.3568,0.3852,0.3856,0.3859,0,0.296,0.3003,0.3061,0.3146,0.3166,0.3213,0.3329,0.3394,0.3524,0.3588,0.3678,0.3704,0.3815,0.375,0.3902,0.3847,0.3863,0.3884,0.389,0.3785,0.3687,0.3527,0.36,0.3898,0.3895,0.3892,0.3889,0,0.2938,0.3016,0.306,0.3078,0.3181,0.3232,0.3314,0.3448,0.3531,0.3704,0.3799,0.3911,0.3993,0.4061,0.4077,0.4029,0.4237,0.4162,0.4057,0.4047,0.3826,0.3788,0.427,0.427,0.427,0.4269,0.4269,0,0.2932,0.2979,0.3062,0.307,0.3168,0.3257,0.3369,0.3494,0.367,0.3779,0.3886,0.3984,0.4085,0.4175,0.4177,0.4207,0.4318,0.4117,0.4102,0.3828,0.3791,0.41,0.4079,0.4275,0.4274,0.4273,0.4272,0,0.2919,0.2962,0.3012,0.3106,0.3145,0.3229,0.3391,0.3511,0.3688,0.3842,0.391,0.4097,0.4223,0.4284,0.4401,0.4323,0.4365,0.4326,0.3985,0.3926,0.4092,0.4071,0.4262,0.4259,0.4257,0.4255,0.4254,0,0.2914,0.2911,0.3002,0.3043,0.3088,0.3203,0.3313,0.3507,0.3608,0.3867,0.3942,0.4132,0.4156,0.4305,0.4277,0.4291,0.4348,0.3992,0.3822,0.4137,0.4103,0.4085,0.4068,0.3546,0.3539,0.3533,0.3528,0,0.2863,0.289,0.2954,0.3017,0.3106,0.3205,0.3348,0.3405,0.3617,0.3715,0.385,0.3897,0.4048,0.3917,0.396,0.3917,0.3972,0.3869,0.4346,0.3576,0.347,0.3433,0.3439,0.3476,0.3481,0.3485,0.3488,0.349,0.2845,0.2897,0.2949,0.2984,0.3089,0.3175,0.3152,0.3275,0.334,0.3407,0.36,0.3561,0.3645,0.3524,0.3451,0.3434,0.3677,0.3512,0.3527,0.355,0.342,0.3314,0.3266,0.327,0.3274,0.3277,0.3279,0,0.2793,0.288,0.2916,0.2959,0.2958,0.3076,0.3142,0.3049,0.2974,0.3128,0.3143,0.2926,0.2854,0.2955,0.2834,0.2843,0.2792,0.2743,0.265,0.2707,0.2756,0.2581,0.2208,0.2204,0.22,0.2197,0,0,0.2848,0.2846,0.2831,0.2763,0.2791,0.2743,0.2719,0.2619,0.2615,0.2511,0.2477,0.2703,0.2835,0.2463,0.2458,0.2302,0.247,0.2218,0.309,0.3037,0.308,0.3229,0.3029,0,0,0,0,0]},{"header":{"parameterUnit":"m.s-1","parameterCategory":2,"la1":30.2991,"la2":30.254,"lo1":-89.0895,"lo2":-89.0444,"dy":0.0017,"dx":0.0017,"nx":28,"ny":28,"refTime":"2025-03-11T03:00:00:Z","depth":"2","parameterNumber":3,"parameterNumberName":"V-component_of_CURRENTS"},"data":[0,0,0,0,0,0,0,0,0,0,0,0,0,0,0,0,0,0,0,0,0,0,0,0,0,0,0,0,0,0,0,0,0,0,0,0,0,0,0,0,0,0,0,0,0,0,0,0,0,0,0,0,0,0,0,0,0,0,0.0077,0.0077,0,0.0026,0.0025,0.0025,-0.0003,-0.0003,-0.0003,-0.0004,-0.008,-0.0082,-0.0084,0,0,0,0,0,0,0,0,0,0,0,0,0,0.0116,0.0115,0.0077,0.0077,0.0076,0.0026,0.0025,0.0025,-0.0003,-0.0003,-0.0003,-0.0004,-0.008,-0.0082,-0.0085,0,0,0,0,0,0,0,0,0,0,0,0,0,0.0085,0.0115,0.0078,0.0056,0.0054,0.0026,0.0025,0.0025,-0.0003,-0.0003,-0.0004,-0.0004,-0.0079,-0.0082,-0.0085,-0.0102,0,0,-0.0094,-0.0095,0,0,0,0,0,0,0,0,0.0087,0.0083,0.006,0.0058,0.0055,0.0018,0.0011,-0.0019,-0.0003,0.0018,-0.0004,-0.0004,-0.005,-0.0055,-0.0065,-0.0106,-0.0109,-0.0094,-0.0096,-0.0098,-0.0098,0,0,0,0,0,0,0,0.0089,0.0085,0.0057,0.006,0.0056,0.0037,0.0033,0.0005,-0.0016,0.0016,0.0014,0.0009,-0.0051,-0.0062,-0.0067,-0.011,-0.0094,-0.0097,-0.0099,-0.01,-0.0147,-0.0147,0,0,0,0,0,0,0.0098,0.0088,0.0058,0.0055,0.0072,0.0037,0.0032,0.003,-0.0015,-0.0021,0.0009,0.0008,-0.0057,-0.0063,-0.007,-0.007,-0.0097,-0.01,-0.0102,-0.0148,-0.0147,-0.0147,0,0,0,0,0,0,0.0099,0.0096,0.006,0.007,0.0065,0.0037,0.0034,0.0029,0.0021,-0.002,-0.0027,0.0008,-0.0057,-0.0065,-0.0081,-0.0074,-0.0102,-0.0104,-0.0149,-0.0148,-0.0147,-0.0085,0,0,0,0,0,0,0.01,0.0097,0.0099,0.0071,0.0064,0.0052,0.0034,0.0028,0.0018,0.0016,-0.0024,-0.0031,-0.0058,-0.0076,-0.0084,-0.0079,-0.0107,-0.0149,-0.0148,-0.0147,-0.0088,-0.0082,-0.0078,0,0,0,0,0,0.0102,0.0113,0.0099,0.0096,0.0068,0.0052,0.0048,0.0027,0.0019,0.0019,-0.0002,-0.003,-0.0075,-0.0078,-0.0087,-0.0083,-0.015,-0.0149,-0.0147,-0.009,-0.0083,-0.0078,0,0,0,0,0,0,0.0134,0.0111,0.0095,0.0099,0.0078,0.0048,0.0048,0.0032,0.0015,0.0015,-0.0024,-0.0032,-0.0045,-0.007,-0.0072,-0.0093,-0.0117,-0.0118,-0.0071,-0.0065,-0.006,-0.0035,-0.0109,0,0,0,0,0,0.0141,0.0142,0.0112,0.0115,0.0106,0.0076,0.0068,0.0054,0.0034,0.0027,-0.0002,-0.0028,-0.0048,-0.006,-0.0085,-0.0096,-0.0118,-0.0099,-0.0094,-0.0089,-0.0075,-0.0089,-0.0084,-0.0143,-0.0143,-0.0143,0,0,0.0154,0.0141,0.0142,0.0122,0.0103,0.0102,0.0071,0.0065,0.0069,0.0021,0.0017,-0.0013,-0.0047,-0.0057,-0.0065,-0.0076,-0.0088,-0.0088,-0.0083,-0.0071,-0.0087,-0.0081,-0.0076,-0.0142,-0.0142,-0.0142,0,0,0.0185,0.0169,0.0179,0.0166,0.0145,0.0127,0.0127,0.0099,0.0091,0.008,0.0051,0.0032,-0.0007,-0.0023,-0.0037,-0.0018,-0.006,-0.0033,0.0013,-0.0001,0.0004,0.0008,-0.0028,-0.0027,-0.0029,-0.0029,-0.0029,0,0.0202,0.021,0.018,0.0187,0.0184,0.0142,0.0156,0.014,0.0112,0.0114,0.0089,0.0052,0.0013,0.0017,0.0018,-0.0006,-0.0027,-0.0008,0.0007,0.0011,0.0014,-0.0024,-0.0024,-0.0026,-0.0026,-0.0026,-0.0027,0,0.0238,0.0244,0.0251,0.0245,0.0238,0.0243,0.0217,0.0212,0.0191,0.0175,0.0169,0.0123,0.0105,0.0083,0.0052,0.0059,0.0031,0.0015,-0.0006,0.0024,-0.0018,-0.002,-0.0021,-0.0022,-0.0023,-0.0024,0,0,0.0276,0.0277,0.0279,0.0293,0.0272,0.0276,0.028,0.0278,0.0302,0.0257,0.0285,0.0229,0.0203,0.0187,0.0146,0.0127,0.0111,0.0083,0.008,0.0052,0.0066,0.0012,0.0005,0.0099,0.01,0.01,0.0021,0,0.0313,0.0346,0.0334,0.0369,0.0383,0.0356,0.037,0.0364,0.0354,0.0368,0.0319,0.0325,0.0244,0.0246,0.021,0.0153,0.0113,0.0133,0.0037,0.0034,-0.0012,0.0005,0.003,-0.004,0.002,0.0019,0.0019,0,0.035,0.037,0.0413,0.0442,0.0447,0.046,0.0488,0.0502,0.0502,0.0498,0.0484,0.0448,0.0417,0.0347,0.0248,0.0266,0.0166,0.0105,0.0101,0.0034,-0.002,-0.0057,-0.0045,0.0017,0.0017,0.0017,0.0017,0,0.0393,0.0426,0.047,0.0476,0.0499,0.0519,0.0531,0.054,0.0589,0.0593,0.0631,0.0566,0.0563,0.0444,0.0295,0.0278,0.0183,0.0143,-0.0007,-0.0013,-0.0018,-0.0025,0.0059,0.0059,0.0059,0.006,0.006,0,0.0437,0.0468,0.0497,0.052,0.0585,0.0578,0.0652,0.0657,0.0709,0.0798,0.071,0.0762,0.0591,0.0511,0.0346,0.0171,0.0214,0.0006,-0.0029,0.0001,-0.0003,0.0028,0.0026,0.0057,0.0057,0.0058,0.0058,0,0.048,0.0489,0.0548,0.0589,0.0608,0.0658,0.0739,0.0809,0.0834,0.0954,0.0971,0.0925,0.0811,0.0614,0.0426,0.0254,0.0084,-0.0001,0.0031,-0.0,-0.0123,-0.0121,-0.0169,-0.0171,-0.0173,-0.0175,-0.0176,0,0.0507,0.055,0.0614,0.066,0.0682,0.0754,0.082,0.0866,0.0972,0.1066,0.1152,0.1067,0.1013,0.0693,0.0389,0.0083,0.0053,-0.0101,-0.0139,-0.0113,-0.0143,-0.0138,-0.0134,-0.013,-0.0131,-0.0132,-0.0132,0,0.0578,0.0602,0.0642,0.0754,0.0826,0.0928,0.1035,0.1138,0.1236,0.1312,0.1413,0.1366,0.1055,0.0742,0.0305,0.0107,-0.005,-0.0129,-0.0081,-0.008,-0.0084,-0.0111,-0.0106,-0.0139,-0.0138,-0.0138,-0.0137,-0.0137,0.0627,0.067,0.0744,0.0855,0.0957,0.1117,0.1215,0.134,0.1492,0.1626,0.1593,0.1515,0.116,0.0589,0.0232,-0.013,-0.0117,-0.0243,-0.0238,-0.0232,-0.0216,-0.0224,-0.0304,-0.0304,-0.0304,-0.0305,-0.0305,0,0.0684,0.0741,0.0852,0.0985,0.114,0.1181,0.1383,0.1476,0.1644,0.1718,0.1748,0.142,0.1036,0.0637,0.0082,-0.0261,-0.0264,-0.0354,-0.0283,-0.0274,-0.0267,-0.0251,-0.0349,-0.035,-0.0351,-0.0352,0,0,0.071,0.081,0.0877,0.1134,0.1252,0.1456,0.1574,0.1673,0.1753,0.1792,0.1746,0.1638,0.1147,0.0743,0.0282,-0.0036,-0.0071,-0.0092,-0.002,0.0126,0.0138,-0.017,-0.0132,0,0,0,0,0]}],[{"header":{"parameterUnit":"m.s-1","parameterCategory":2,"la1":30.2991,"la2":30.254,"lo1":-89.0895,"lo2":-89.0444,"dy":0.0017,"dx":0.0017,"nx":28,"ny":28,"refTime":"2025-03-11T03:00:00:Z","depth":"4","parameterNumber":2,"parameterNumberName":"U-component_of_CURRENTS"},"data":[0,0,0,0,0,0,0,0,0,0,0,0,0,0,0,0,0,0,0,0,0,0,0,0,0,0,0,0,0,0,0,0,0,0,0,0,0,0,0,0,0,0,0,0,0,0,0,0,0,0,0,0,0,0,0,0,0,0,0.1479,0.148,0,0.1608,0.161,0.1611,0.1713,0.1715,0.1716,0.1717,0.1735,0.1734,0.1733,0,0,0,0,0,0,0,0,0,0,0,0,0,0.1304,0.1307,0.1478,0.148,0.1482,0.1608,0.161,0.1611,0.1713,0.1715,0.1716,0.1718,0.1735,0.1734,0.1733,0,0,0,0,0,0,0,0,0,0,0,0,0,0.14,0.1308,0.1478,0.155,0.1558,0.1608,0.161,0.1612,0.1713,0.1715,0.1717,0.1718,0.1735,0.1734,0.1733,0.1691,0,0,0.173,0.173,0,0,0,0,0,0,0,0,0.1394,0.1406,0.1537,0.1545,0.1554,0.1649,0.1555,0.1633,0.1712,0.1652,0.1717,0.1719,0.1695,0.1698,0.1717,0.1692,0.1692,0.173,0.173,0.1729,0.1729,0,0,0,0,0,0,0,0.1387,0.1401,0.1528,0.1539,0.1549,0.1571,0.1586,0.1571,0.1658,0.1657,0.1665,0.1683,0.1699,0.1718,0.1718,0.1693,0.173,0.1729,0.1729,0.1728,0.1806,0.1809,0,0,0,0,0,0,0.1375,0.1394,0.1524,0.1532,0.1479,0.1573,0.159,0.1615,0.1661,0.1671,0.1681,0.1687,0.1718,0.1719,0.1718,0.1791,0.1729,0.1728,0.1728,0.1804,0.1807,0.181,0,0,0,0,0,0,0.1371,0.1385,0.1518,0.1467,0.1486,0.1574,0.1601,0.1616,0.1677,0.1681,0.1689,0.1731,0.172,0.172,0.1743,0.1787,0.1728,0.1727,0.1801,0.1805,0.1808,0.1857,0,0,0,0,0,0,0.1365,0.1383,0.1407,0.1467,0.1489,0.1572,0.16,0.1617,0.1683,0.1693,0.1724,0.1726,0.1721,0.1745,0.1742,0.1785,0.1726,0.1797,0.1802,0.1807,0.1852,0.1862,0.1871,0,0,0,0,0,0.1359,0.1387,0.1407,0.1424,0.1515,0.1573,0.1587,0.1653,0.1684,0.1713,0.1739,0.1728,0.1776,0.1745,0.1741,0.1785,0.1795,0.1801,0.1807,0.1848,0.186,0.1871,0,0,0,0,0,0,0.1327,0.1401,0.1425,0.1476,0.1529,0.1592,0.1631,0.1669,0.1716,0.1732,0.1736,0.1739,0.1788,0.1777,0.1743,0.183,0.1793,0.1799,0.1826,0.1838,0.1847,0.1851,0.1725,0,0,0,0,0,0.1326,0.1365,0.1434,0.1472,0.1506,0.1571,0.1609,0.1653,0.1697,0.1724,0.1748,0.1777,0.1802,0.1812,0.1831,0.185,0.1865,0.1888,0.1898,0.1905,0.1912,0.1973,0.1988,0.1829,0.1829,0.1829,0,0,0.1321,0.1368,0.139,0.1468,0.1518,0.1564,0.16,0.1668,0.171,0.1709,0.1778,0.1805,0.1818,0.1862,0.1883,0.1859,0.1962,0.1913,0.1919,0.1921,0.198,0.1996,0.2009,0.1833,0.1833,0.1832,0,0,0.1323,0.1378,0.1413,0.1466,0.1548,0.158,0.1606,0.1689,0.1739,0.1787,0.182,0.1867,0.1898,0.1926,0.1937,0.2003,0.2014,0.2034,0.2072,0.2132,0.2145,0.2156,0.2203,0.2218,0.2032,0.2032,0.2032,0,0.1317,0.137,0.143,0.1485,0.1532,0.1589,0.1638,0.1686,0.1766,0.1806,0.1818,0.1922,0.1925,0.1989,0.2026,0.2021,0.2064,0.202,0.2142,0.2153,0.2164,0.2209,0.2225,0.2035,0.2035,0.2034,0.2034,0,0.1348,0.1399,0.1429,0.1507,0.1563,0.1614,0.1689,0.1749,0.1803,0.1848,0.1946,0.1975,0.2041,0.2061,0.2057,0.2155,0.2164,0.2148,0.2105,0.2183,0.2226,0.2242,0.2039,0.2038,0.2037,0.2037,0,0,0.1322,0.1424,0.1444,0.1479,0.1586,0.1628,0.1707,0.1785,0.1849,0.1925,0.2022,0.2071,0.212,0.214,0.2169,0.2216,0.2321,0.2226,0.2228,0.2258,0.2471,0.2294,0.2294,0.2342,0.2345,0.2347,0.2472,0,0.133,0.1406,0.1468,0.1538,0.1583,0.167,0.1731,0.1817,0.1895,0.2,0.2065,0.2163,0.2141,0.2211,0.2251,0.2311,0.2367,0.2289,0.2403,0.2406,0.2227,0.2306,0.2357,0.2483,0.2487,0.2489,0.2491,0,0.1336,0.1398,0.1463,0.1554,0.1588,0.1642,0.177,0.1838,0.198,0.2063,0.2175,0.2243,0.2346,0.2329,0.2443,0.2407,0.2453,0.2482,0.2487,0.2312,0.2258,0.239,0.252,0.2517,0.2515,0.2513,0.2512,0,0.126,0.1382,0.1424,0.1466,0.1587,0.1651,0.1725,0.1862,0.1938,0.214,0.2229,0.2348,0.2459,0.251,0.2551,0.2534,0.2669,0.2643,0.2527,0.2516,0.2614,0.26,0.2744,0.2744,0.2744,0.2743,0.2743,0,0.1202,0.1238,0.1404,0.1427,0.1508,0.163,0.1739,0.1833,0.2009,0.2101,0.2267,0.237,0.2522,0.2602,0.2607,0.2595,0.2711,0.2548,0.2538,0.2634,0.2621,0.2625,0.261,0.2748,0.2747,0.2746,0.2745,0,0.1053,0.1153,0.1227,0.1402,0.1457,0.153,0.1726,0.1795,0.1989,0.2136,0.2216,0.2438,0.2551,0.2628,0.2749,0.2666,0.2669,0.2646,0.2751,0.2743,0.2471,0.2458,0.2536,0.2531,0.2527,0.2523,0.252,0,0.0984,0.1001,0.1192,0.1243,0.1318,0.1468,0.1542,0.1761,0.1867,0.2134,0.2189,0.2398,0.2516,0.2539,0.2635,0.2645,0.2617,0.2613,0.253,0.2469,0.2453,0.2446,0.2438,0.2513,0.2512,0.2511,0.251,0,0.0853,0.092,0.0975,0.107,0.1171,0.1326,0.1486,0.1547,0.1803,0.1984,0.2139,0.2226,0.2372,0.2461,0.2503,0.2491,0.2597,0.2567,0.2576,0.2498,0.2442,0.2428,0.2426,0.2495,0.2497,0.2498,0.2499,0,0.0782,0.0771,0.0822,0.0929,0.1042,0.1174,0.1275,0.144,0.1583,0.1889,0.1936,0.2143,0.2356,0.2384,0.2391,0.2387,0.236,0.2283,0.2306,0.2324,0.219,0.2083,0.203,0,0,0,0,0,0.0739,0.0695,0.0685,0.0812,0.0916,0.1032,0.1229,0.1352,0.1608,0.1655,0.1804,0.1921,0.2023,0.2145,0.2099,0.227,0.2337,0.2205,0.225,0.2411,0.2428,0.2286,0,0,0,0,0,0,0.0668,0.0653,0.0626,0.0717,0.0805,0.0938,0.1091,0.1241,0.1325,0.1562,0.1639,0.182,0.195,0.2042,0.2078,0.2103,0.2091,0.2338,0.2333,0.2401,0.2417,0.2431,0.2291,0,0,0,0,0]},{"header":{"parameterUnit":"m.s-1","parameterCategory":2,"la1":30.2991,"la2":30.254,"lo1":-89.0895,"lo2":-89.0444,"dy":0.0017,"dx":0.0017,"nx":28,"ny":28,"refTime":"2025-03-11T03:00:00:Z","depth":"4","parameterNumber":3,"parameterNumberName":"V-component_of_CURRENTS"},"data":[0,0,0,0,0,0,0,0,0,0,0,0,0,0,0,0,0,0,0,0,0,0,0,0,0,0,0,0,0,0,0,0,0,0,0,0,0,0,0,0,0,0,0,0,0,0,0,0,0,0,0,0,0,0,0,0,0,0,0.0063,0.0063,0,0.0037,0.0037,0.0036,0.0021,0.0021,0.0021,0.0021,-0.0015,-0.0016,-0.0017,0,0,0,0,0,0,0,0,0,0,0,0,0,0.0089,0.0089,0.0064,0.0063,0.0063,0.0037,0.0036,0.0036,0.0021,0.0021,0.0021,0.0021,-0.0015,-0.0016,-0.0017,0,0,0,0,0,0,0,0,0,0,0,0,0,0.0072,0.0089,0.0064,0.0052,0.0051,0.0037,0.0036,0.0036,0.0021,0.0021,0.0021,0.0021,-0.0015,-0.0016,-0.0018,-0.0025,0,0,-0.0022,-0.0022,0,0,0,0,0,0,0,0,0.0073,0.0071,0.0054,0.0053,0.0052,0.0032,0.0032,0.0015,0.0022,0.0033,0.0021,0.0021,-0.0,-0.0003,-0.0008,-0.0027,-0.0028,-0.0022,-0.0023,-0.0023,-0.0024,0,0,0,0,0,0,0,0.0074,0.0072,0.0053,0.0054,0.0052,0.0044,0.0042,0.0029,0.0017,0.0032,0.0031,0.0028,-0.0001,-0.0006,-0.0009,-0.0029,-0.0022,-0.0023,-0.0024,-0.0025,-0.0053,-0.0053,0,0,0,0,0,0,0.0078,0.0073,0.0054,0.0052,0.0062,0.0044,0.0041,0.0039,0.0017,0.0014,0.0028,0.0027,-0.0004,-0.0007,-0.001,-0.0014,-0.0023,-0.0025,-0.0026,-0.0053,-0.0053,-0.0053,0,0,0,0,0,0,0.0079,0.0077,0.0055,0.0062,0.0059,0.0044,0.0041,0.0038,0.0034,0.0014,0.0011,0.0027,-0.0004,-0.0008,-0.0014,-0.0016,-0.0025,-0.0027,-0.0053,-0.0053,-0.0053,-0.0026,0,0,0,0,0,0,0.008,0.0077,0.0075,0.0062,0.0058,0.0049,0.0041,0.0038,0.0032,0.0031,0.0012,0.0008,-0.0004,-0.0012,-0.0015,-0.0018,-0.0028,-0.0053,-0.0053,-0.0053,-0.0027,-0.0025,-0.0023,0,0,0,0,0,0.0081,0.0083,0.0075,0.0073,0.0057,0.0049,0.0047,0.0036,0.0032,0.0032,0.0023,0.0009,-0.0014,-0.0012,-0.0017,-0.002,-0.0053,-0.0053,-0.0053,-0.0028,-0.0026,-0.0023,0,0,0,0,0,0,0.0098,0.0081,0.0073,0.0071,0.006,0.0047,0.0044,0.0038,0.003,0.0031,0.0013,0.0009,0.0003,-0.0011,-0.001,-0.0028,-0.0037,-0.0038,-0.0017,-0.0015,-0.0013,-0.0007,-0.0029,0,0,0,0,0,0.0099,0.0096,0.0079,0.0079,0.0072,0.0058,0.0053,0.0047,0.0039,0.0036,0.0022,0.0009,-0.0001,-0.0009,-0.002,-0.0029,-0.0056,-0.0035,-0.0033,-0.0031,-0.003,-0.0069,-0.0071,-0.0052,-0.0052,-0.0052,0,0,0.0108,0.0098,0.0096,0.0082,0.0072,0.007,0.0055,0.0052,0.0054,0.0033,0.0032,0.0017,-0.0,-0.0008,-0.0013,-0.002,-0.0052,-0.0031,-0.0029,-0.0029,-0.007,-0.0071,-0.0073,-0.0052,-0.0052,-0.0052,0,0,0.0129,0.0111,0.0117,0.0106,0.0093,0.0081,0.0081,0.0067,0.0063,0.0059,0.0046,0.0031,0.0015,0.0001,-0.0008,-0.0004,-0.0038,-0.0008,0.0002,-0.0036,-0.0038,-0.004,-0.0082,-0.0088,-0.001,-0.001,-0.001,0,0.0142,0.0147,0.0118,0.012,0.0122,0.0089,0.0102,0.0086,0.0075,0.0074,0.0063,0.0036,0.0018,0.0008,0.0009,-0.0,-0.0028,-0.0004,-0.0034,-0.0037,-0.0039,-0.0082,-0.0089,-0.0009,-0.0009,-0.0009,-0.0009,0,0.0165,0.017,0.0172,0.0163,0.0156,0.0163,0.0138,0.0129,0.0117,0.0101,0.0089,0.0061,0.0045,0.0032,0.0022,-0.0002,-0.0018,-0.0025,-0.004,-0.004,-0.0084,-0.0092,-0.0007,-0.0008,-0.0008,-0.0008,0,0,0.0202,0.0194,0.0197,0.0214,0.0185,0.0194,0.018,0.0171,0.0177,0.0137,0.0142,0.0104,0.008,0.0069,0.0046,0.0007,-0.004,-0.0015,-0.0018,-0.0056,-0.013,-0.0126,-0.0135,-0.0053,-0.0054,-0.0055,-0.0156,0,0.0238,0.0268,0.0246,0.028,0.0298,0.0261,0.0261,0.0241,0.0217,0.0205,0.015,0.0147,0.0096,0.01,0.0045,-0.001,-0.0058,-0.0012,-0.0125,-0.0128,-0.0124,-0.0143,-0.0058,-0.0162,-0.0164,-0.0165,-0.0166,0,0.0273,0.0293,0.0339,0.0362,0.0366,0.0377,0.0381,0.0376,0.0326,0.0306,0.0258,0.0217,0.0153,0.0121,-0.0011,0.0021,-0.0053,-0.0109,-0.0114,-0.0123,-0.0138,-0.0161,-0.018,-0.0179,-0.0178,-0.0177,-0.0176,0,0.0332,0.0362,0.0413,0.0418,0.0426,0.0447,0.0448,0.0414,0.0431,0.0374,0.0371,0.0273,0.0251,0.0125,-0.001,-0.0007,-0.0156,-0.0165,-0.0238,-0.0239,-0.0224,-0.0221,-0.0258,-0.0258,-0.0258,-0.0258,-0.0257,0,0.0382,0.0423,0.0455,0.048,0.0552,0.0526,0.0584,0.0555,0.0539,0.0553,0.0438,0.0423,0.0253,0.0143,0.0003,-0.0148,-0.0155,-0.0242,-0.0265,-0.0211,-0.0205,-0.023,-0.0225,-0.0262,-0.0261,-0.026,-0.0259,0,0.0436,0.0451,0.0516,0.0556,0.0584,0.0634,0.0688,0.0716,0.0679,0.069,0.0679,0.0549,0.039,0.0203,0.0009,-0.0104,-0.0262,-0.0311,-0.0246,-0.0263,-0.0323,-0.0316,-0.0402,-0.0402,-0.0403,-0.0403,-0.0404,0,0.0457,0.0505,0.0587,0.0646,0.0675,0.0752,0.0799,0.0791,0.0814,0.0761,0.0764,0.063,0.0515,0.0229,0.0027,-0.025,-0.0281,-0.0361,-0.0344,-0.0324,-0.0339,-0.033,-0.0322,-0.0405,-0.0405,-0.0405,-0.0405,0,0.0506,0.0546,0.0596,0.0705,0.0783,0.0892,0.0952,0.0964,0.0936,0.093,0.0837,0.0672,0.0493,0.0247,0.0034,-0.0164,-0.0313,-0.0368,-0.0368,-0.0352,-0.0329,-0.0341,-0.0332,-0.0407,-0.0407,-0.0407,-0.0407,0,0.0528,0.0585,0.0646,0.0754,0.0861,0.0959,0.0996,0.1008,0.1018,0.0936,0.0914,0.0691,0.0586,0.0292,0.0088,-0.0106,-0.0148,-0.0199,-0.0209,-0.0209,-0.0126,-0.0067,-0.0088,0,0,0,0,0,0.0534,0.06,0.0694,0.0787,0.0897,0.0968,0.1059,0.1075,0.1039,0.0992,0.0952,0.0774,0.0468,0.0333,0.0141,0.0065,-0.0193,-0.0166,-0.0259,-0.0419,-0.0416,-0.0352,0,0,0,0,0,0,0.0537,0.0609,0.0672,0.0789,0.0868,0.0984,0.1042,0.104,0.1007,0.0956,0.0797,0.074,0.0441,0.0579,0.014,0.0081,-0.0001,-0.0301,-0.0304,-0.042,-0.0418,-0.0416,-0.0349,0,0,0,0,0]}]]